Index of /20260427/WXO-DD/model_rdps/10km/12/044
Name Last modified Size Description
Parent Directory -
20260427T12Z_MSC_RDPS_AbsoluteVorticity_IsbL-0250_RLatLon0.09_PT044H.grib2 2026-04-27 14:55 634K
20260427T12Z_MSC_RDPS_AbsoluteVorticity_IsbL-0500_RLatLon0.09_PT044H.grib2 2026-04-27 14:55 573K
20260427T12Z_MSC_RDPS_AbsoluteVorticity_IsbL-0700_RLatLon0.09_PT044H.grib2 2026-04-27 14:55 616K
20260427T12Z_MSC_RDPS_AbsoluteVorticity_IsbL-0850_RLatLon0.09_PT044H.grib2 2026-04-27 14:55 772K
20260427T12Z_MSC_RDPS_AirTemp_AGL-120m_RLatLon0.09_PT044H.grib2 2026-04-27 14:55 389K
20260427T12Z_MSC_RDPS_AirTemp_AGL-2m_RLatLon0.09_PT044H.grib2 2026-04-27 14:55 625K
20260427T12Z_MSC_RDPS_AirTemp_AGL-40m_RLatLon0.09_PT044H.grib2 2026-04-27 14:55 405K
20260427T12Z_MSC_RDPS_AirTemp_AGL-80m_RLatLon0.09_PT044H.grib2 2026-04-27 14:55 397K
20260427T12Z_MSC_RDPS_AirTemp_IsbL-0001_RLatLon0.09_PT044H.grib2 2026-04-27 14:55 254K
20260427T12Z_MSC_RDPS_AirTemp_IsbL-0005_RLatLon0.09_PT044H.grib2 2026-04-27 14:55 294K
20260427T12Z_MSC_RDPS_AirTemp_IsbL-0010_RLatLon0.09_PT044H.grib2 2026-04-27 14:55 305K
20260427T12Z_MSC_RDPS_AirTemp_IsbL-0020_RLatLon0.09_PT044H.grib2 2026-04-27 14:55 319K
20260427T12Z_MSC_RDPS_AirTemp_IsbL-0030_RLatLon0.09_PT044H.grib2 2026-04-27 14:55 339K
20260427T12Z_MSC_RDPS_AirTemp_IsbL-0050_RLatLon0.09_PT044H.grib2 2026-04-27 14:55 319K
20260427T12Z_MSC_RDPS_AirTemp_IsbL-0100_RLatLon0.09_PT044H.grib2 2026-04-27 14:55 434K
20260427T12Z_MSC_RDPS_AirTemp_IsbL-0150_RLatLon0.09_PT044H.grib2 2026-04-27 14:55 431K
20260427T12Z_MSC_RDPS_AirTemp_IsbL-0175_RLatLon0.09_PT044H.grib2 2026-04-27 14:55 418K
20260427T12Z_MSC_RDPS_AirTemp_IsbL-0200_RLatLon0.09_PT044H.grib2 2026-04-27 14:55 423K
20260427T12Z_MSC_RDPS_AirTemp_IsbL-0225_RLatLon0.09_PT044H.grib2 2026-04-27 14:55 425K
20260427T12Z_MSC_RDPS_AirTemp_IsbL-0250_RLatLon0.09_PT044H.grib2 2026-04-27 14:55 434K
20260427T12Z_MSC_RDPS_AirTemp_IsbL-0275_RLatLon0.09_PT044H.grib2 2026-04-27 14:55 416K
20260427T12Z_MSC_RDPS_AirTemp_IsbL-0300_RLatLon0.09_PT044H.grib2 2026-04-27 14:55 422K
20260427T12Z_MSC_RDPS_AirTemp_IsbL-0350_RLatLon0.09_PT044H.grib2 2026-04-27 14:55 432K
20260427T12Z_MSC_RDPS_AirTemp_IsbL-0400_RLatLon0.09_PT044H.grib2 2026-04-27 14:55 432K
20260427T12Z_MSC_RDPS_AirTemp_IsbL-0450_RLatLon0.09_PT044H.grib2 2026-04-27 14:55 402K
20260427T12Z_MSC_RDPS_AirTemp_IsbL-0500_RLatLon0.09_PT044H.grib2 2026-04-27 14:55 410K
20260427T12Z_MSC_RDPS_AirTemp_IsbL-0550_RLatLon0.09_PT044H.grib2 2026-04-27 14:55 427K
20260427T12Z_MSC_RDPS_AirTemp_IsbL-0600_RLatLon0.09_PT044H.grib2 2026-04-27 14:55 444K
20260427T12Z_MSC_RDPS_AirTemp_IsbL-0650_RLatLon0.09_PT044H.grib2 2026-04-27 14:55 458K
20260427T12Z_MSC_RDPS_AirTemp_IsbL-0700_RLatLon0.09_PT044H.grib2 2026-04-27 14:55 483K
20260427T12Z_MSC_RDPS_AirTemp_IsbL-0750_RLatLon0.09_PT044H.grib2 2026-04-27 14:55 406K
20260427T12Z_MSC_RDPS_AirTemp_IsbL-0800_RLatLon0.09_PT044H.grib2 2026-04-27 14:55 450K
20260427T12Z_MSC_RDPS_AirTemp_IsbL-0850_RLatLon0.09_PT044H.grib2 2026-04-27 14:55 501K
20260427T12Z_MSC_RDPS_AirTemp_IsbL-0875_RLatLon0.09_PT044H.grib2 2026-04-27 14:55 520K
20260427T12Z_MSC_RDPS_AirTemp_IsbL-0900_RLatLon0.09_PT044H.grib2 2026-04-27 14:55 528K
20260427T12Z_MSC_RDPS_AirTemp_IsbL-0925_RLatLon0.09_PT044H.grib2 2026-04-27 14:55 522K
20260427T12Z_MSC_RDPS_AirTemp_IsbL-0950_RLatLon0.09_PT044H.grib2 2026-04-27 14:55 524K
20260427T12Z_MSC_RDPS_AirTemp_IsbL-0970_RLatLon0.09_PT044H.grib2 2026-04-27 14:55 514K
20260427T12Z_MSC_RDPS_AirTemp_IsbL-0985_RLatLon0.09_PT044H.grib2 2026-04-27 14:55 500K
20260427T12Z_MSC_RDPS_AirTemp_IsbL-1000_RLatLon0.09_PT044H.grib2 2026-04-27 14:55 484K
20260427T12Z_MSC_RDPS_AirTemp_IsbL-1015_RLatLon0.09_PT044H.grib2 2026-04-27 14:55 484K
20260427T12Z_MSC_RDPS_Albedo_Sfc_RLatLon0.09_PT044H.grib2 2026-04-27 14:55 162K
20260427T12Z_MSC_RDPS_CAPE_Sfc_RLatLon0.09_PT044H.grib2 2026-04-27 14:55 1.7M
20260427T12Z_MSC_RDPS_CIN_Sfc_RLatLon0.09_PT044H.grib2 2026-04-27 14:55 1.1M
20260427T12Z_MSC_RDPS_CloudWater_EAtm_RLatLon0.09_PT044H.grib2 2026-04-27 14:55 218K
20260427T12Z_MSC_RDPS_ConvectivePrecip-Accum_Sfc_RLatLon0.09_PT044H.grib2 2026-04-27 14:55 1.1M
20260427T12Z_MSC_RDPS_DewPointDepression_AGL-2m_RLatLon0.09_PT044H.grib2 2026-04-27 14:55 391K
20260427T12Z_MSC_RDPS_DewPointDepression_IsbL-0001_RLatLon0.09_PT044H.grib2 2026-04-27 14:55 193
20260427T12Z_MSC_RDPS_DewPointDepression_IsbL-0005_RLatLon0.09_PT044H.grib2 2026-04-27 14:55 193
20260427T12Z_MSC_RDPS_DewPointDepression_IsbL-0010_RLatLon0.09_PT044H.grib2 2026-04-27 14:55 193
20260427T12Z_MSC_RDPS_DewPointDepression_IsbL-0020_RLatLon0.09_PT044H.grib2 2026-04-27 14:55 193
20260427T12Z_MSC_RDPS_DewPointDepression_IsbL-0030_RLatLon0.09_PT044H.grib2 2026-04-27 14:55 193
20260427T12Z_MSC_RDPS_DewPointDepression_IsbL-0050_RLatLon0.09_PT044H.grib2 2026-04-27 14:55 86K
20260427T12Z_MSC_RDPS_DewPointDepression_IsbL-0100_RLatLon0.09_PT044H.grib2 2026-04-27 14:55 130K
20260427T12Z_MSC_RDPS_DewPointDepression_IsbL-0150_RLatLon0.09_PT044H.grib2 2026-04-27 14:55 148K
20260427T12Z_MSC_RDPS_DewPointDepression_IsbL-0175_RLatLon0.09_PT044H.grib2 2026-04-27 14:55 175K
20260427T12Z_MSC_RDPS_DewPointDepression_IsbL-0200_RLatLon0.09_PT044H.grib2 2026-04-27 14:55 214K
20260427T12Z_MSC_RDPS_DewPointDepression_IsbL-0225_RLatLon0.09_PT044H.grib2 2026-04-27 14:55 264K
20260427T12Z_MSC_RDPS_DewPointDepression_IsbL-0250_RLatLon0.09_PT044H.grib2 2026-04-27 14:55 304K
20260427T12Z_MSC_RDPS_DewPointDepression_IsbL-0275_RLatLon0.09_PT044H.grib2 2026-04-27 14:55 310K
20260427T12Z_MSC_RDPS_DewPointDepression_IsbL-0300_RLatLon0.09_PT044H.grib2 2026-04-27 14:55 329K
20260427T12Z_MSC_RDPS_DewPointDepression_IsbL-0350_RLatLon0.09_PT044H.grib2 2026-04-27 14:55 333K
20260427T12Z_MSC_RDPS_DewPointDepression_IsbL-0400_RLatLon0.09_PT044H.grib2 2026-04-27 14:55 340K
20260427T12Z_MSC_RDPS_DewPointDepression_IsbL-0450_RLatLon0.09_PT044H.grib2 2026-04-27 14:55 346K
20260427T12Z_MSC_RDPS_DewPointDepression_IsbL-0500_RLatLon0.09_PT044H.grib2 2026-04-27 14:55 354K
20260427T12Z_MSC_RDPS_DewPointDepression_IsbL-0550_RLatLon0.09_PT044H.grib2 2026-04-27 14:55 365K
20260427T12Z_MSC_RDPS_DewPointDepression_IsbL-0600_RLatLon0.09_PT044H.grib2 2026-04-27 14:55 373K
20260427T12Z_MSC_RDPS_DewPointDepression_IsbL-0650_RLatLon0.09_PT044H.grib2 2026-04-27 14:55 378K
20260427T12Z_MSC_RDPS_DewPointDepression_IsbL-0700_RLatLon0.09_PT044H.grib2 2026-04-27 14:55 391K
20260427T12Z_MSC_RDPS_DewPointDepression_IsbL-0750_RLatLon0.09_PT044H.grib2 2026-04-27 14:55 410K
20260427T12Z_MSC_RDPS_DewPointDepression_IsbL-0800_RLatLon0.09_PT044H.grib2 2026-04-27 14:55 439K
20260427T12Z_MSC_RDPS_DewPointDepression_IsbL-0850_RLatLon0.09_PT044H.grib2 2026-04-27 14:55 465K
20260427T12Z_MSC_RDPS_DewPointDepression_IsbL-0875_RLatLon0.09_PT044H.grib2 2026-04-27 14:55 468K
20260427T12Z_MSC_RDPS_DewPointDepression_IsbL-0900_RLatLon0.09_PT044H.grib2 2026-04-27 14:55 461K
20260427T12Z_MSC_RDPS_DewPointDepression_IsbL-0925_RLatLon0.09_PT044H.grib2 2026-04-27 14:55 449K
20260427T12Z_MSC_RDPS_DewPointDepression_IsbL-0950_RLatLon0.09_PT044H.grib2 2026-04-27 14:55 443K
20260427T12Z_MSC_RDPS_DewPointDepression_IsbL-0970_RLatLon0.09_PT044H.grib2 2026-04-27 14:55 433K
20260427T12Z_MSC_RDPS_DewPointDepression_IsbL-0985_RLatLon0.09_PT044H.grib2 2026-04-27 14:55 426K
20260427T12Z_MSC_RDPS_DewPointDepression_IsbL-1000_RLatLon0.09_PT044H.grib2 2026-04-27 14:55 421K
20260427T12Z_MSC_RDPS_DewPointDepression_IsbL-1015_RLatLon0.09_PT044H.grib2 2026-04-27 14:55 414K
20260427T12Z_MSC_RDPS_DewPoint_AGL-2m_RLatLon0.09_PT044H.grib2 2026-04-27 14:55 308K
20260427T12Z_MSC_RDPS_DownwardLongwaveRadiationFlux-Accum_Sfc_RLatLon0.09_PT044H.grib2 2026-04-27 14:55 364K
20260427T12Z_MSC_RDPS_DownwardShortwaveRadiationFlux-Accum_NTAtm_RLatLon0.09_PT044H.grib2 2026-04-27 14:55 122K
20260427T12Z_MSC_RDPS_DownwardShortwaveRadiationFlux-Accum_Sfc_RLatLon0.09_PT044H.grib2 2026-04-27 14:55 553K
20260427T12Z_MSC_RDPS_FreezingRain-Accum1h_Sfc_RLatLon0.09_PT044H.grib2 2026-04-27 14:55 41K
20260427T12Z_MSC_RDPS_FreezingRain-Accum_Sfc_RLatLon0.09_PT044H.grib2 2026-04-27 14:55 149K
20260427T12Z_MSC_RDPS_GeopotentialHeight_IsbL-0001_RLatLon0.09_PT044H.grib2 2026-04-27 14:55 238K
20260427T12Z_MSC_RDPS_GeopotentialHeight_IsbL-0005_RLatLon0.09_PT044H.grib2 2026-04-27 14:55 339K
20260427T12Z_MSC_RDPS_GeopotentialHeight_IsbL-0010_RLatLon0.09_PT044H.grib2 2026-04-27 14:55 307K
20260427T12Z_MSC_RDPS_GeopotentialHeight_IsbL-0020_RLatLon0.09_PT044H.grib2 2026-04-27 14:55 306K
20260427T12Z_MSC_RDPS_GeopotentialHeight_IsbL-0030_RLatLon0.09_PT044H.grib2 2026-04-27 14:55 307K
20260427T12Z_MSC_RDPS_GeopotentialHeight_IsbL-0050_RLatLon0.09_PT044H.grib2 2026-04-27 14:55 310K
20260427T12Z_MSC_RDPS_GeopotentialHeight_IsbL-0100_RLatLon0.09_PT044H.grib2 2026-04-27 14:55 288K
20260427T12Z_MSC_RDPS_GeopotentialHeight_IsbL-0150_RLatLon0.09_PT044H.grib2 2026-04-27 14:55 231K
20260427T12Z_MSC_RDPS_GeopotentialHeight_IsbL-0175_RLatLon0.09_PT044H.grib2 2026-04-27 14:55 265K
20260427T12Z_MSC_RDPS_GeopotentialHeight_IsbL-0200_RLatLon0.09_PT044H.grib2 2026-04-27 14:55 267K
20260427T12Z_MSC_RDPS_GeopotentialHeight_IsbL-0225_RLatLon0.09_PT044H.grib2 2026-04-27 14:55 268K
20260427T12Z_MSC_RDPS_GeopotentialHeight_IsbL-0250_RLatLon0.09_PT044H.grib2 2026-04-27 14:55 268K
20260427T12Z_MSC_RDPS_GeopotentialHeight_IsbL-0275_RLatLon0.09_PT044H.grib2 2026-04-27 14:55 267K
20260427T12Z_MSC_RDPS_GeopotentialHeight_IsbL-0300_RLatLon0.09_PT044H.grib2 2026-04-27 14:55 268K
20260427T12Z_MSC_RDPS_GeopotentialHeight_IsbL-0350_RLatLon0.09_PT044H.grib2 2026-04-27 14:55 233K
20260427T12Z_MSC_RDPS_GeopotentialHeight_IsbL-0400_RLatLon0.09_PT044H.grib2 2026-04-27 14:55 229K
20260427T12Z_MSC_RDPS_GeopotentialHeight_IsbL-0450_RLatLon0.09_PT044H.grib2 2026-04-27 14:55 298K
20260427T12Z_MSC_RDPS_GeopotentialHeight_IsbL-0500_RLatLon0.09_PT044H.grib2 2026-04-27 14:55 293K
20260427T12Z_MSC_RDPS_GeopotentialHeight_IsbL-0550_RLatLon0.09_PT044H.grib2 2026-04-27 14:55 289K
20260427T12Z_MSC_RDPS_GeopotentialHeight_IsbL-0600_RLatLon0.09_PT044H.grib2 2026-04-27 14:55 286K
20260427T12Z_MSC_RDPS_GeopotentialHeight_IsbL-0650_RLatLon0.09_PT044H.grib2 2026-04-27 14:55 253K
20260427T12Z_MSC_RDPS_GeopotentialHeight_IsbL-0700_RLatLon0.09_PT044H.grib2 2026-04-27 14:55 252K
20260427T12Z_MSC_RDPS_GeopotentialHeight_IsbL-0750_RLatLon0.09_PT044H.grib2 2026-04-27 14:55 336K
20260427T12Z_MSC_RDPS_GeopotentialHeight_IsbL-0800_RLatLon0.09_PT044H.grib2 2026-04-27 14:55 344K
20260427T12Z_MSC_RDPS_GeopotentialHeight_IsbL-0850_RLatLon0.09_PT044H.grib2 2026-04-27 14:55 354K
20260427T12Z_MSC_RDPS_GeopotentialHeight_IsbL-0875_RLatLon0.09_PT044H.grib2 2026-04-27 14:55 356K
20260427T12Z_MSC_RDPS_GeopotentialHeight_IsbL-0900_RLatLon0.09_PT044H.grib2 2026-04-27 14:55 361K
20260427T12Z_MSC_RDPS_GeopotentialHeight_IsbL-0925_RLatLon0.09_PT044H.grib2 2026-04-27 14:55 364K
20260427T12Z_MSC_RDPS_GeopotentialHeight_IsbL-0950_RLatLon0.09_PT044H.grib2 2026-04-27 14:55 368K
20260427T12Z_MSC_RDPS_GeopotentialHeight_IsbL-0970_RLatLon0.09_PT044H.grib2 2026-04-27 14:55 374K
20260427T12Z_MSC_RDPS_GeopotentialHeight_IsbL-0985_RLatLon0.09_PT044H.grib2 2026-04-27 14:55 382K
20260427T12Z_MSC_RDPS_GeopotentialHeight_IsbL-1000_RLatLon0.09_PT044H.grib2 2026-04-27 14:55 393K
20260427T12Z_MSC_RDPS_GeopotentialHeight_IsbL-1015_RLatLon0.09_PT044H.grib2 2026-04-27 14:55 407K
20260427T12Z_MSC_RDPS_Humidex_Sfc_RLatLon0.09_PT044H.grib2 2026-04-27 14:55 2.4M
20260427T12Z_MSC_RDPS_IcePellets-Accum1h_Sfc_RLatLon0.09_PT044H.grib2 2026-04-27 14:55 6.6K
20260427T12Z_MSC_RDPS_IcePellets-Accum_Sfc_RLatLon0.09_PT044H.grib2 2026-04-27 14:55 21K
20260427T12Z_MSC_RDPS_KIndex_Sfc_RLatLon0.09_PT044H.grib2 2026-04-27 14:55 2.5M
20260427T12Z_MSC_RDPS_LatentHeatNetFlux_Sfc_RLatLon0.09_PT044H.grib2 2026-04-27 14:55 404K
20260427T12Z_MSC_RDPS_LiftedIndex-MU-VT_IsbL-0500_RLatLon0.09_PT044H.grib2 2026-04-27 14:55 2.4M
20260427T12Z_MSC_RDPS_NetLongwaveRadiationFlux-Accum_Sfc_RLatLon0.09_PT044H.grib2 2026-04-27 14:55 534K
20260427T12Z_MSC_RDPS_NetShortwaveRadiationFlux-Accum_Sfc_RLatLon0.09_PT044H.grib2 2026-04-27 14:55 555K
20260427T12Z_MSC_RDPS_PlanetaryBoundaryLayerHeight_Sfc_RLatLon0.09_PT044H.grib2 2026-04-27 14:55 1.1M
20260427T12Z_MSC_RDPS_Precip-Accum1h_Sfc_RLatLon0.09_PT044H.grib2 2026-04-27 14:55 1.1M
20260427T12Z_MSC_RDPS_Precip-Accum_Sfc_RLatLon0.09_PT044H.grib2 2026-04-27 14:55 2.0M
20260427T12Z_MSC_RDPS_PrecipRate_Sfc_RLatLon0.09_PT044H.grib2 2026-04-27 14:55 161K
20260427T12Z_MSC_RDPS_PrecipType-Instant_Sfc_RLatLon0.09_PT044H.grib2 2026-04-27 14:55 559K
20260427T12Z_MSC_RDPS_Pressure-Trend3h_Sfc_RLatLon0.09_PT044H.grib2 2026-04-27 14:55 1.2M
20260427T12Z_MSC_RDPS_Pressure_MSL_RLatLon0.09_PT044H.grib2 2026-04-27 14:55 325K
20260427T12Z_MSC_RDPS_Pressure_PVU-1.5_RLatLon0.09_PT044H.grib2 2026-04-27 14:55 2.5M
20260427T12Z_MSC_RDPS_Pressure_PVU-1_RLatLon0.09_PT044H.grib2 2026-04-27 14:55 2.4M
20260427T12Z_MSC_RDPS_Pressure_PVU-2_RLatLon0.09_PT044H.grib2 2026-04-27 14:55 2.4M
20260427T12Z_MSC_RDPS_Pressure_Sfc_RLatLon0.09_PT044H.grib2 2026-04-27 14:55 500K
20260427T12Z_MSC_RDPS_RadiativeTemp_Sfc_RLatLon0.09_PT044H.grib2 2026-04-27 14:55 300K
20260427T12Z_MSC_RDPS_Rain-Accum1h_Sfc_RLatLon0.09_PT044H.grib2 2026-04-27 14:55 487K
20260427T12Z_MSC_RDPS_Rain-Accum_Sfc_RLatLon0.09_PT044H.grib2 2026-04-27 14:55 1.6M
20260427T12Z_MSC_RDPS_RelativeHumidity_AGL-2m_RLatLon0.09_PT044H.grib2 2026-04-27 14:55 1.0M
20260427T12Z_MSC_RDPS_RelativeHumidity_IsbL-0010_RLatLon0.09_PT044H.grib2 2026-04-27 14:55 623K
20260427T12Z_MSC_RDPS_RelativeHumidity_IsbL-0020_RLatLon0.09_PT044H.grib2 2026-04-27 14:55 648K
20260427T12Z_MSC_RDPS_RelativeHumidity_IsbL-0030_RLatLon0.09_PT044H.grib2 2026-04-27 14:55 539K
20260427T12Z_MSC_RDPS_RelativeHumidity_IsbL-0050_RLatLon0.09_PT044H.grib2 2026-04-27 14:55 328K
20260427T12Z_MSC_RDPS_RelativeHumidity_IsbL-0100_RLatLon0.09_PT044H.grib2 2026-04-27 14:55 285K
20260427T12Z_MSC_RDPS_RelativeHumidity_IsbL-0150_RLatLon0.09_PT044H.grib2 2026-04-27 14:55 421K
20260427T12Z_MSC_RDPS_RelativeHumidity_IsbL-0175_RLatLon0.09_PT044H.grib2 2026-04-27 14:55 486K
20260427T12Z_MSC_RDPS_RelativeHumidity_IsbL-0200_RLatLon0.09_PT044H.grib2 2026-04-27 14:55 554K
20260427T12Z_MSC_RDPS_RelativeHumidity_IsbL-0225_RLatLon0.09_PT044H.grib2 2026-04-27 14:55 622K
20260427T12Z_MSC_RDPS_RelativeHumidity_IsbL-0250_RLatLon0.09_PT044H.grib2 2026-04-27 14:55 694K
20260427T12Z_MSC_RDPS_RelativeHumidity_IsbL-0275_RLatLon0.09_PT044H.grib2 2026-04-27 14:55 723K
20260427T12Z_MSC_RDPS_RelativeHumidity_IsbL-0300_RLatLon0.09_PT044H.grib2 2026-04-27 14:55 766K
20260427T12Z_MSC_RDPS_RelativeHumidity_IsbL-0350_RLatLon0.09_PT044H.grib2 2026-04-27 14:55 785K
20260427T12Z_MSC_RDPS_RelativeHumidity_IsbL-0400_RLatLon0.09_PT044H.grib2 2026-04-27 14:55 795K
20260427T12Z_MSC_RDPS_RelativeHumidity_IsbL-0450_RLatLon0.09_PT044H.grib2 2026-04-27 14:55 798K
20260427T12Z_MSC_RDPS_RelativeHumidity_IsbL-0500_RLatLon0.09_PT044H.grib2 2026-04-27 14:55 804K
20260427T12Z_MSC_RDPS_RelativeHumidity_IsbL-0550_RLatLon0.09_PT044H.grib2 2026-04-27 14:55 818K
20260427T12Z_MSC_RDPS_RelativeHumidity_IsbL-0600_RLatLon0.09_PT044H.grib2 2026-04-27 14:55 834K
20260427T12Z_MSC_RDPS_RelativeHumidity_IsbL-0650_RLatLon0.09_PT044H.grib2 2026-04-27 14:55 845K
20260427T12Z_MSC_RDPS_RelativeHumidity_IsbL-0700_RLatLon0.09_PT044H.grib2 2026-04-27 14:55 870K
20260427T12Z_MSC_RDPS_RelativeHumidity_IsbL-0750_RLatLon0.09_PT044H.grib2 2026-04-27 14:55 913K
20260427T12Z_MSC_RDPS_RelativeHumidity_IsbL-0800_RLatLon0.09_PT044H.grib2 2026-04-27 14:55 1.0M
20260427T12Z_MSC_RDPS_RelativeHumidity_IsbL-0850_RLatLon0.09_PT044H.grib2 2026-04-27 14:55 1.0M
20260427T12Z_MSC_RDPS_RelativeHumidity_IsbL-0875_RLatLon0.09_PT044H.grib2 2026-04-27 14:55 1.0M
20260427T12Z_MSC_RDPS_RelativeHumidity_IsbL-0900_RLatLon0.09_PT044H.grib2 2026-04-27 14:55 1.1M
20260427T12Z_MSC_RDPS_RelativeHumidity_IsbL-0925_RLatLon0.09_PT044H.grib2 2026-04-27 14:55 1.1M
20260427T12Z_MSC_RDPS_RelativeHumidity_IsbL-0950_RLatLon0.09_PT044H.grib2 2026-04-27 14:55 1.1M
20260427T12Z_MSC_RDPS_RelativeHumidity_IsbL-0970_RLatLon0.09_PT044H.grib2 2026-04-27 14:55 1.0M
20260427T12Z_MSC_RDPS_RelativeHumidity_IsbL-0985_RLatLon0.09_PT044H.grib2 2026-04-27 14:55 1.0M
20260427T12Z_MSC_RDPS_RelativeHumidity_IsbL-1000_RLatLon0.09_PT044H.grib2 2026-04-27 14:55 1.0M
20260427T12Z_MSC_RDPS_RelativeHumidity_IsbL-1015_RLatLon0.09_PT044H.grib2 2026-04-27 14:55 1.0M
20260427T12Z_MSC_RDPS_Runoff-Accum_Sfc_RLatLon0.09_PT044H.grib2 2026-04-27 14:55 47K
20260427T12Z_MSC_RDPS_SWEATIndex_Sfc_RLatLon0.09_PT044H.grib2 2026-04-27 14:55 2.4M
20260427T12Z_MSC_RDPS_SeeingIndex_EAtm_RLatLon0.09_PT044H.grib2 2026-04-27 14:55 1.0M
20260427T12Z_MSC_RDPS_SensibleHeatNetFlux_Sfc_RLatLon0.09_PT044H.grib2 2026-04-27 14:55 294K
20260427T12Z_MSC_RDPS_ShowalterIndex_IsbL-0500_RLatLon0.09_PT044H.grib2 2026-04-27 14:55 2.6M
20260427T12Z_MSC_RDPS_SkyTransparencyIndex_EAtm_RLatLon0.09_PT044H.grib2 2026-04-27 14:55 688K
20260427T12Z_MSC_RDPS_Snow-Accum1h_Sfc_RLatLon0.09_PT044H.grib2 2026-04-27 14:55 471K
20260427T12Z_MSC_RDPS_Snow-Accum_Sfc_RLatLon0.09_PT044H.grib2 2026-04-27 14:55 773K
20260427T12Z_MSC_RDPS_SnowDensity_Sfc_RLatLon0.09_PT044H.grib2 2026-04-27 14:55 185K
20260427T12Z_MSC_RDPS_SnowDepth_Sfc_RLatLon0.09_PT044H.grib2 2026-04-27 14:55 702K
20260427T12Z_MSC_RDPS_SoilTemp_DBS-0to10cm_RLatLon0.09_PT044H.grib2 2026-04-27 14:55 233K
20260427T12Z_MSC_RDPS_SoilTemp_Sfc_RLatLon0.09_PT044H.grib2 2026-04-27 14:55 267K
20260427T12Z_MSC_RDPS_SoilVolumetricIceContent_Sfc_RLatLon0.09_PT044H.grib2 2026-04-27 14:55 166K
20260427T12Z_MSC_RDPS_SoilVolumetricWaterContent_DBS-0to10cm_RLatLon0.09_PT044H.grib2 2026-04-27 14:55 264K
20260427T12Z_MSC_RDPS_SoilVolumetricWaterContent_DBS-0to1cm_RLatLon0.09_PT044H.grib2 2026-04-27 14:55 336K
20260427T12Z_MSC_RDPS_SpecificHumidity_AGL-120m_RLatLon0.09_PT044H.grib2 2026-04-27 14:55 484K
20260427T12Z_MSC_RDPS_SpecificHumidity_AGL-2m_RLatLon0.09_PT044H.grib2 2026-04-27 14:55 646K
20260427T12Z_MSC_RDPS_SpecificHumidity_AGL-40m_RLatLon0.09_PT044H.grib2 2026-04-27 14:55 488K
20260427T12Z_MSC_RDPS_SpecificHumidity_AGL-80m_RLatLon0.09_PT044H.grib2 2026-04-27 14:55 485K
20260427T12Z_MSC_RDPS_SpecificHumidity_IsbL-0001_RLatLon0.09_PT044H.grib2 2026-04-27 14:55 336K
20260427T12Z_MSC_RDPS_SpecificHumidity_IsbL-0005_RLatLon0.09_PT044H.grib2 2026-04-27 14:55 357K
20260427T12Z_MSC_RDPS_SpecificHumidity_IsbL-0010_RLatLon0.09_PT044H.grib2 2026-04-27 14:55 398K
20260427T12Z_MSC_RDPS_SpecificHumidity_IsbL-0020_RLatLon0.09_PT044H.grib2 2026-04-27 14:55 389K
20260427T12Z_MSC_RDPS_SpecificHumidity_IsbL-0030_RLatLon0.09_PT044H.grib2 2026-04-27 14:55 477K
20260427T12Z_MSC_RDPS_SpecificHumidity_IsbL-0050_RLatLon0.09_PT044H.grib2 2026-04-27 14:55 459K
20260427T12Z_MSC_RDPS_SpecificHumidity_IsbL-0100_RLatLon0.09_PT044H.grib2 2026-04-27 14:55 429K
20260427T12Z_MSC_RDPS_SpecificHumidity_IsbL-0150_RLatLon0.09_PT044H.grib2 2026-04-27 14:55 487K
20260427T12Z_MSC_RDPS_SpecificHumidity_IsbL-0175_RLatLon0.09_PT044H.grib2 2026-04-27 14:55 439K
20260427T12Z_MSC_RDPS_SpecificHumidity_IsbL-0200_RLatLon0.09_PT044H.grib2 2026-04-27 14:55 453K
20260427T12Z_MSC_RDPS_SpecificHumidity_IsbL-0225_RLatLon0.09_PT044H.grib2 2026-04-27 14:55 457K
20260427T12Z_MSC_RDPS_SpecificHumidity_IsbL-0250_RLatLon0.09_PT044H.grib2 2026-04-27 14:55 562K
20260427T12Z_MSC_RDPS_SpecificHumidity_IsbL-0275_RLatLon0.09_PT044H.grib2 2026-04-27 14:55 476K
20260427T12Z_MSC_RDPS_SpecificHumidity_IsbL-0300_RLatLon0.09_PT044H.grib2 2026-04-27 14:55 547K
20260427T12Z_MSC_RDPS_SpecificHumidity_IsbL-0350_RLatLon0.09_PT044H.grib2 2026-04-27 14:55 540K
20260427T12Z_MSC_RDPS_SpecificHumidity_IsbL-0400_RLatLon0.09_PT044H.grib2 2026-04-27 14:55 520K
20260427T12Z_MSC_RDPS_SpecificHumidity_IsbL-0450_RLatLon0.09_PT044H.grib2 2026-04-27 14:55 571K
20260427T12Z_MSC_RDPS_SpecificHumidity_IsbL-0500_RLatLon0.09_PT044H.grib2 2026-04-27 14:55 509K
20260427T12Z_MSC_RDPS_SpecificHumidity_IsbL-0550_RLatLon0.09_PT044H.grib2 2026-04-27 14:55 581K
20260427T12Z_MSC_RDPS_SpecificHumidity_IsbL-0600_RLatLon0.09_PT044H.grib2 2026-04-27 14:55 632K
20260427T12Z_MSC_RDPS_SpecificHumidity_IsbL-0650_RLatLon0.09_PT044H.grib2 2026-04-27 14:55 549K
20260427T12Z_MSC_RDPS_SpecificHumidity_IsbL-0700_RLatLon0.09_PT044H.grib2 2026-04-27 14:55 591K
20260427T12Z_MSC_RDPS_SpecificHumidity_IsbL-0750_RLatLon0.09_PT044H.grib2 2026-04-27 14:55 643K
20260427T12Z_MSC_RDPS_SpecificHumidity_IsbL-0800_RLatLon0.09_PT044H.grib2 2026-04-27 14:55 719K
20260427T12Z_MSC_RDPS_SpecificHumidity_IsbL-0850_RLatLon0.09_PT044H.grib2 2026-04-27 14:55 792K
20260427T12Z_MSC_RDPS_SpecificHumidity_IsbL-0875_RLatLon0.09_PT044H.grib2 2026-04-27 14:55 819K
20260427T12Z_MSC_RDPS_SpecificHumidity_IsbL-0900_RLatLon0.09_PT044H.grib2 2026-04-27 14:55 832K
20260427T12Z_MSC_RDPS_SpecificHumidity_IsbL-0925_RLatLon0.09_PT044H.grib2 2026-04-27 14:55 833K
20260427T12Z_MSC_RDPS_SpecificHumidity_IsbL-0950_RLatLon0.09_PT044H.grib2 2026-04-27 14:55 834K
20260427T12Z_MSC_RDPS_SpecificHumidity_IsbL-0970_RLatLon0.09_PT044H.grib2 2026-04-27 14:55 822K
20260427T12Z_MSC_RDPS_SpecificHumidity_IsbL-0985_RLatLon0.09_PT044H.grib2 2026-04-27 14:55 813K
20260427T12Z_MSC_RDPS_SpecificHumidity_IsbL-1000_RLatLon0.09_PT044H.grib2 2026-04-27 14:55 666K
20260427T12Z_MSC_RDPS_SpecificHumidity_IsbL-1015_RLatLon0.09_PT044H.grib2 2026-04-27 14:55 658K
20260427T12Z_MSC_RDPS_SpecificHumidity_Sfc_RLatLon0.09_PT044H.grib2 2026-04-27 14:55 290K
20260427T12Z_MSC_RDPS_StormRelativeHelicity_EtaL-10000_RLatLon0.09_PT044H.grib2 2026-04-27 14:55 1.1M
20260427T12Z_MSC_RDPS_StormSeverityIndex_EtaL-10000_RLatLon0.09_PT044H.grib2 2026-04-27 14:55 1.1M
20260427T12Z_MSC_RDPS_Thickness_IsbL-0850to0700_RLatLon0.09_PT044H.grib2 2026-04-27 14:55 177K
20260427T12Z_MSC_RDPS_Thickness_IsbL-1000to0500_RLatLon0.09_PT044H.grib2 2026-04-27 14:55 198K
20260427T12Z_MSC_RDPS_Thickness_IsbL-1000to0850_RLatLon0.09_PT044H.grib2 2026-04-27 14:55 260K
20260427T12Z_MSC_RDPS_TotalCloudCover_Sfc_RLatLon0.09_PT044H.grib2 2026-04-27 14:55 652K
20260427T12Z_MSC_RDPS_TotalTotalsIndex_Sfc_RLatLon0.09_PT044H.grib2 2026-04-27 14:55 2.4M
20260427T12Z_MSC_RDPS_UVIndex-ClearSky_Sfc_RLatLon0.09_PT044H.grib2 2026-04-27 14:55 88K
20260427T12Z_MSC_RDPS_UVIndex_Sfc_RLatLon0.09_PT044H.grib2 2026-04-27 14:55 155K
20260427T12Z_MSC_RDPS_UpwardLongwaveRadiationFlux_NTAtm_RLatLon0.09_PT044H.grib2 2026-04-27 14:55 488K
20260427T12Z_MSC_RDPS_UpwardShortwaveRadiationFlux_NTAtm_RLatLon0.09_PT044H.grib2 2026-04-27 14:55 134K
20260427T12Z_MSC_RDPS_VerticalVelocity_IsbL-0250_RLatLon0.09_PT044H.grib2 2026-04-27 14:55 439K
20260427T12Z_MSC_RDPS_VerticalVelocity_IsbL-0500_RLatLon0.09_PT044H.grib2 2026-04-27 14:55 545K
20260427T12Z_MSC_RDPS_VerticalVelocity_IsbL-0700_RLatLon0.09_PT044H.grib2 2026-04-27 14:55 588K
20260427T12Z_MSC_RDPS_VerticalVelocity_IsbL-0850_RLatLon0.09_PT044H.grib2 2026-04-27 14:55 641K
20260427T12Z_MSC_RDPS_VerticalWindShear_EtaL-6500_RLatLon0.09_PT044H.grib2 2026-04-27 14:55 1.2M
20260427T12Z_MSC_RDPS_WindChill_Sfc_RLatLon0.09_PT044H.grib2 2026-04-27 14:55 1.1M
20260427T12Z_MSC_RDPS_WindDir_AGL-10m_RLatLon0.09_PT044H.grib2 2026-04-27 14:55 971K
20260427T12Z_MSC_RDPS_WindDir_AGL-120m_RLatLon0.09_PT044H.grib2 2026-04-27 14:55 609K
20260427T12Z_MSC_RDPS_WindDir_AGL-40m_RLatLon0.09_PT044H.grib2 2026-04-27 14:55 639K
20260427T12Z_MSC_RDPS_WindDir_AGL-80m_RLatLon0.09_PT044H.grib2 2026-04-27 14:55 620K
20260427T12Z_MSC_RDPS_WindDir_IsbL-0001_RLatLon0.09_PT044H.grib2 2026-04-27 14:55 313K
20260427T12Z_MSC_RDPS_WindDir_IsbL-0005_RLatLon0.09_PT044H.grib2 2026-04-27 14:55 362K
20260427T12Z_MSC_RDPS_WindDir_IsbL-0010_RLatLon0.09_PT044H.grib2 2026-04-27 14:55 385K
20260427T12Z_MSC_RDPS_WindDir_IsbL-0020_RLatLon0.09_PT044H.grib2 2026-04-27 14:55 415K
20260427T12Z_MSC_RDPS_WindDir_IsbL-0030_RLatLon0.09_PT044H.grib2 2026-04-27 14:55 414K
20260427T12Z_MSC_RDPS_WindDir_IsbL-0050_RLatLon0.09_PT044H.grib2 2026-04-27 14:55 426K
20260427T12Z_MSC_RDPS_WindDir_IsbL-0100_RLatLon0.09_PT044H.grib2 2026-04-27 14:55 424K
20260427T12Z_MSC_RDPS_WindDir_IsbL-0150_RLatLon0.09_PT044H.grib2 2026-04-27 14:55 418K
20260427T12Z_MSC_RDPS_WindDir_IsbL-0175_RLatLon0.09_PT044H.grib2 2026-04-27 14:55 438K
20260427T12Z_MSC_RDPS_WindDir_IsbL-0200_RLatLon0.09_PT044H.grib2 2026-04-27 14:55 449K
20260427T12Z_MSC_RDPS_WindDir_IsbL-0225_RLatLon0.09_PT044H.grib2 2026-04-27 14:55 454K
20260427T12Z_MSC_RDPS_WindDir_IsbL-0250_RLatLon0.09_PT044H.grib2 2026-04-27 14:55 457K
20260427T12Z_MSC_RDPS_WindDir_IsbL-0275_RLatLon0.09_PT044H.grib2 2026-04-27 14:55 476K
20260427T12Z_MSC_RDPS_WindDir_IsbL-0300_RLatLon0.09_PT044H.grib2 2026-04-27 14:55 473K
20260427T12Z_MSC_RDPS_WindDir_IsbL-0350_RLatLon0.09_PT044H.grib2 2026-04-27 14:55 497K
20260427T12Z_MSC_RDPS_WindDir_IsbL-0400_RLatLon0.09_PT044H.grib2 2026-04-27 14:55 521K
20260427T12Z_MSC_RDPS_WindDir_IsbL-0450_RLatLon0.09_PT044H.grib2 2026-04-27 14:55 529K
20260427T12Z_MSC_RDPS_WindDir_IsbL-0500_RLatLon0.09_PT044H.grib2 2026-04-27 14:55 546K
20260427T12Z_MSC_RDPS_WindDir_IsbL-0550_RLatLon0.09_PT044H.grib2 2026-04-27 14:55 562K
20260427T12Z_MSC_RDPS_WindDir_IsbL-0600_RLatLon0.09_PT044H.grib2 2026-04-27 14:55 593K
20260427T12Z_MSC_RDPS_WindDir_IsbL-0650_RLatLon0.09_PT044H.grib2 2026-04-27 14:55 626K
20260427T12Z_MSC_RDPS_WindDir_IsbL-0700_RLatLon0.09_PT044H.grib2 2026-04-27 14:55 666K
20260427T12Z_MSC_RDPS_WindDir_IsbL-0750_RLatLon0.09_PT044H.grib2 2026-04-27 14:55 711K
20260427T12Z_MSC_RDPS_WindDir_IsbL-0800_RLatLon0.09_PT044H.grib2 2026-04-27 14:55 778K
20260427T12Z_MSC_RDPS_WindDir_IsbL-0850_RLatLon0.09_PT044H.grib2 2026-04-27 14:55 855K
20260427T12Z_MSC_RDPS_WindDir_IsbL-0875_RLatLon0.09_PT044H.grib2 2026-04-27 14:55 881K
20260427T12Z_MSC_RDPS_WindDir_IsbL-0900_RLatLon0.09_PT044H.grib2 2026-04-27 14:55 898K
20260427T12Z_MSC_RDPS_WindDir_IsbL-0925_RLatLon0.09_PT044H.grib2 2026-04-27 14:55 910K
20260427T12Z_MSC_RDPS_WindDir_IsbL-0950_RLatLon0.09_PT044H.grib2 2026-04-27 14:55 912K
20260427T12Z_MSC_RDPS_WindDir_IsbL-0970_RLatLon0.09_PT044H.grib2 2026-04-27 14:55 922K
20260427T12Z_MSC_RDPS_WindDir_IsbL-0985_RLatLon0.09_PT044H.grib2 2026-04-27 14:55 929K
20260427T12Z_MSC_RDPS_WindDir_IsbL-1000_RLatLon0.09_PT044H.grib2 2026-04-27 14:55 944K
20260427T12Z_MSC_RDPS_WindDir_IsbL-1015_RLatLon0.09_PT044H.grib2 2026-04-27 14:55 962K
20260427T12Z_MSC_RDPS_WindGust-Max_AGL-10m_RLatLon0.09_PT044H.grib2 2026-04-27 14:55 948K
20260427T12Z_MSC_RDPS_WindGust-Min_AGL-10m_RLatLon0.09_PT044H.grib2 2026-04-27 14:55 1.0M
20260427T12Z_MSC_RDPS_WindGust_AGL-10m_RLatLon0.09_PT044H.grib2 2026-04-27 14:55 1.0M
20260427T12Z_MSC_RDPS_WindSpeed_AGL-10m_RLatLon0.09_PT044H.grib2 2026-04-27 14:55 836K
20260427T12Z_MSC_RDPS_WindSpeed_AGL-120m_RLatLon0.09_PT044H.grib2 2026-04-27 14:55 550K
20260427T12Z_MSC_RDPS_WindSpeed_AGL-40m_RLatLon0.09_PT044H.grib2 2026-04-27 14:55 552K
20260427T12Z_MSC_RDPS_WindSpeed_AGL-80m_RLatLon0.09_PT044H.grib2 2026-04-27 14:55 551K
20260427T12Z_MSC_RDPS_WindSpeed_IsbL-0001_RLatLon0.09_PT044H.grib2 2026-04-27 14:55 334K
20260427T12Z_MSC_RDPS_WindSpeed_IsbL-0005_RLatLon0.09_PT044H.grib2 2026-04-27 14:55 298K
20260427T12Z_MSC_RDPS_WindSpeed_IsbL-0010_RLatLon0.09_PT044H.grib2 2026-04-27 14:55 311K
20260427T12Z_MSC_RDPS_WindSpeed_IsbL-0020_RLatLon0.09_PT044H.grib2 2026-04-27 14:55 326K
20260427T12Z_MSC_RDPS_WindSpeed_IsbL-0030_RLatLon0.09_PT044H.grib2 2026-04-27 14:55 322K
20260427T12Z_MSC_RDPS_WindSpeed_IsbL-0050_RLatLon0.09_PT044H.grib2 2026-04-27 14:55 462K
20260427T12Z_MSC_RDPS_WindSpeed_IsbL-0100_RLatLon0.09_PT044H.grib2 2026-04-27 14:55 490K
20260427T12Z_MSC_RDPS_WindSpeed_IsbL-0150_RLatLon0.09_PT044H.grib2 2026-04-27 14:55 389K
20260427T12Z_MSC_RDPS_WindSpeed_IsbL-0175_RLatLon0.09_PT044H.grib2 2026-04-27 14:55 435K
20260427T12Z_MSC_RDPS_WindSpeed_IsbL-0200_RLatLon0.09_PT044H.grib2 2026-04-27 14:55 452K
20260427T12Z_MSC_RDPS_WindSpeed_IsbL-0225_RLatLon0.09_PT044H.grib2 2026-04-27 14:55 458K
20260427T12Z_MSC_RDPS_WindSpeed_IsbL-0250_RLatLon0.09_PT044H.grib2 2026-04-27 14:55 463K
20260427T12Z_MSC_RDPS_WindSpeed_IsbL-0275_RLatLon0.09_PT044H.grib2 2026-04-27 14:55 482K
20260427T12Z_MSC_RDPS_WindSpeed_IsbL-0300_RLatLon0.09_PT044H.grib2 2026-04-27 14:55 479K
20260427T12Z_MSC_RDPS_WindSpeed_IsbL-0350_RLatLon0.09_PT044H.grib2 2026-04-27 14:55 489K
20260427T12Z_MSC_RDPS_WindSpeed_IsbL-0400_RLatLon0.09_PT044H.grib2 2026-04-27 14:55 472K
20260427T12Z_MSC_RDPS_WindSpeed_IsbL-0450_RLatLon0.09_PT044H.grib2 2026-04-27 14:55 470K
20260427T12Z_MSC_RDPS_WindSpeed_IsbL-0500_RLatLon0.09_PT044H.grib2 2026-04-27 14:55 468K
20260427T12Z_MSC_RDPS_WindSpeed_IsbL-0550_RLatLon0.09_PT044H.grib2 2026-04-27 14:55 467K
20260427T12Z_MSC_RDPS_WindSpeed_IsbL-0600_RLatLon0.09_PT044H.grib2 2026-04-27 14:55 591K
20260427T12Z_MSC_RDPS_WindSpeed_IsbL-0650_RLatLon0.09_PT044H.grib2 2026-04-27 14:55 608K
20260427T12Z_MSC_RDPS_WindSpeed_IsbL-0700_RLatLon0.09_PT044H.grib2 2026-04-27 14:55 631K
20260427T12Z_MSC_RDPS_WindSpeed_IsbL-0750_RLatLon0.09_PT044H.grib2 2026-04-27 14:55 658K
20260427T12Z_MSC_RDPS_WindSpeed_IsbL-0800_RLatLon0.09_PT044H.grib2 2026-04-27 14:55 705K
20260427T12Z_MSC_RDPS_WindSpeed_IsbL-0850_RLatLon0.09_PT044H.grib2 2026-04-27 14:55 763K
20260427T12Z_MSC_RDPS_WindSpeed_IsbL-0875_RLatLon0.09_PT044H.grib2 2026-04-27 14:55 830K
20260427T12Z_MSC_RDPS_WindSpeed_IsbL-0900_RLatLon0.09_PT044H.grib2 2026-04-27 14:55 846K
20260427T12Z_MSC_RDPS_WindSpeed_IsbL-0925_RLatLon0.09_PT044H.grib2 2026-04-27 14:55 858K
20260427T12Z_MSC_RDPS_WindSpeed_IsbL-0950_RLatLon0.09_PT044H.grib2 2026-04-27 14:55 859K
20260427T12Z_MSC_RDPS_WindSpeed_IsbL-0970_RLatLon0.09_PT044H.grib2 2026-04-27 14:55 861K
20260427T12Z_MSC_RDPS_WindSpeed_IsbL-0985_RLatLon0.09_PT044H.grib2 2026-04-27 14:55 851K
20260427T12Z_MSC_RDPS_WindSpeed_IsbL-1000_RLatLon0.09_PT044H.grib2 2026-04-27 14:55 845K
20260427T12Z_MSC_RDPS_WindSpeed_IsbL-1015_RLatLon0.09_PT044H.grib2 2026-04-27 14:55 836K
20260427T12Z_MSC_RDPS_WindU_AGL-10m_RLatLon0.09_PT044H.grib2 2026-04-27 14:55 378K
20260427T12Z_MSC_RDPS_WindU_AGL-120m_RLatLon0.09_PT044H.grib2 2026-04-27 14:55 417K
20260427T12Z_MSC_RDPS_WindU_AGL-40m_RLatLon0.09_PT044H.grib2 2026-04-27 14:55 419K
20260427T12Z_MSC_RDPS_WindU_AGL-80m_RLatLon0.09_PT044H.grib2 2026-04-27 14:55 418K
20260427T12Z_MSC_RDPS_WindU_IsbL-0001_RLatLon0.09_PT044H.grib2 2026-04-27 14:55 294K
20260427T12Z_MSC_RDPS_WindU_IsbL-0005_RLatLon0.09_PT044H.grib2 2026-04-27 14:55 290K
20260427T12Z_MSC_RDPS_WindU_IsbL-0010_RLatLon0.09_PT044H.grib2 2026-04-27 14:55 301K
20260427T12Z_MSC_RDPS_WindU_IsbL-0020_RLatLon0.09_PT044H.grib2 2026-04-27 14:55 355K
20260427T12Z_MSC_RDPS_WindU_IsbL-0030_RLatLon0.09_PT044H.grib2 2026-04-27 14:55 314K
20260427T12Z_MSC_RDPS_WindU_IsbL-0050_RLatLon0.09_PT044H.grib2 2026-04-27 14:55 349K
20260427T12Z_MSC_RDPS_WindU_IsbL-0100_RLatLon0.09_PT044H.grib2 2026-04-27 14:55 346K
20260427T12Z_MSC_RDPS_WindU_IsbL-0150_RLatLon0.09_PT044H.grib2 2026-04-27 14:55 405K
20260427T12Z_MSC_RDPS_WindU_IsbL-0175_RLatLon0.09_PT044H.grib2 2026-04-27 14:55 428K
20260427T12Z_MSC_RDPS_WindU_IsbL-0200_RLatLon0.09_PT044H.grib2 2026-04-27 14:55 343K
20260427T12Z_MSC_RDPS_WindU_IsbL-0225_RLatLon0.09_PT044H.grib2 2026-04-27 14:55 349K
20260427T12Z_MSC_RDPS_WindU_IsbL-0250_RLatLon0.09_PT044H.grib2 2026-04-27 14:55 352K
20260427T12Z_MSC_RDPS_WindU_IsbL-0275_RLatLon0.09_PT044H.grib2 2026-04-27 14:55 368K
20260427T12Z_MSC_RDPS_WindU_IsbL-0300_RLatLon0.09_PT044H.grib2 2026-04-27 14:55 363K
20260427T12Z_MSC_RDPS_WindU_IsbL-0350_RLatLon0.09_PT044H.grib2 2026-04-27 14:55 371K
20260427T12Z_MSC_RDPS_WindU_IsbL-0400_RLatLon0.09_PT044H.grib2 2026-04-27 14:55 475K
20260427T12Z_MSC_RDPS_WindU_IsbL-0450_RLatLon0.09_PT044H.grib2 2026-04-27 14:55 471K
20260427T12Z_MSC_RDPS_WindU_IsbL-0500_RLatLon0.09_PT044H.grib2 2026-04-27 14:55 471K
20260427T12Z_MSC_RDPS_WindU_IsbL-0550_RLatLon0.09_PT044H.grib2 2026-04-27 14:55 471K
20260427T12Z_MSC_RDPS_WindU_IsbL-0600_RLatLon0.09_PT044H.grib2 2026-04-27 14:55 461K
20260427T12Z_MSC_RDPS_WindU_IsbL-0650_RLatLon0.09_PT044H.grib2 2026-04-27 14:55 477K
20260427T12Z_MSC_RDPS_WindU_IsbL-0700_RLatLon0.09_PT044H.grib2 2026-04-27 14:55 621K
20260427T12Z_MSC_RDPS_WindU_IsbL-0750_RLatLon0.09_PT044H.grib2 2026-04-27 14:55 524K
20260427T12Z_MSC_RDPS_WindU_IsbL-0800_RLatLon0.09_PT044H.grib2 2026-04-27 14:55 566K
20260427T12Z_MSC_RDPS_WindU_IsbL-0850_RLatLon0.09_PT044H.grib2 2026-04-27 14:55 628K
20260427T12Z_MSC_RDPS_WindU_IsbL-0875_RLatLon0.09_PT044H.grib2 2026-04-27 14:55 636K
20260427T12Z_MSC_RDPS_WindU_IsbL-0900_RLatLon0.09_PT044H.grib2 2026-04-27 14:55 649K
20260427T12Z_MSC_RDPS_WindU_IsbL-0925_RLatLon0.09_PT044H.grib2 2026-04-27 14:55 662K
20260427T12Z_MSC_RDPS_WindU_IsbL-0950_RLatLon0.09_PT044H.grib2 2026-04-27 14:55 652K
20260427T12Z_MSC_RDPS_WindU_IsbL-0970_RLatLon0.09_PT044H.grib2 2026-04-27 14:55 650K
20260427T12Z_MSC_RDPS_WindU_IsbL-0985_RLatLon0.09_PT044H.grib2 2026-04-27 14:55 645K
20260427T12Z_MSC_RDPS_WindU_IsbL-1000_RLatLon0.09_PT044H.grib2 2026-04-27 14:55 642K
20260427T12Z_MSC_RDPS_WindU_IsbL-1015_RLatLon0.09_PT044H.grib2 2026-04-27 14:55 635K
20260427T12Z_MSC_RDPS_WindV_AGL-10m_RLatLon0.09_PT044H.grib2 2026-04-27 14:55 430K
20260427T12Z_MSC_RDPS_WindV_AGL-120m_RLatLon0.09_PT044H.grib2 2026-04-27 14:55 535K
20260427T12Z_MSC_RDPS_WindV_AGL-40m_RLatLon0.09_PT044H.grib2 2026-04-27 14:55 536K
20260427T12Z_MSC_RDPS_WindV_AGL-80m_RLatLon0.09_PT044H.grib2 2026-04-27 14:55 535K
20260427T12Z_MSC_RDPS_WindV_IsbL-0001_RLatLon0.09_PT044H.grib2 2026-04-27 14:55 246K
20260427T12Z_MSC_RDPS_WindV_IsbL-0005_RLatLon0.09_PT044H.grib2 2026-04-27 14:55 290K
20260427T12Z_MSC_RDPS_WindV_IsbL-0010_RLatLon0.09_PT044H.grib2 2026-04-27 14:55 302K
20260427T12Z_MSC_RDPS_WindV_IsbL-0020_RLatLon0.09_PT044H.grib2 2026-04-27 14:55 320K
20260427T12Z_MSC_RDPS_WindV_IsbL-0030_RLatLon0.09_PT044H.grib2 2026-04-27 14:55 317K
20260427T12Z_MSC_RDPS_WindV_IsbL-0050_RLatLon0.09_PT044H.grib2 2026-04-27 14:55 349K
20260427T12Z_MSC_RDPS_WindV_IsbL-0100_RLatLon0.09_PT044H.grib2 2026-04-27 14:55 340K
20260427T12Z_MSC_RDPS_WindV_IsbL-0150_RLatLon0.09_PT044H.grib2 2026-04-27 14:55 402K
20260427T12Z_MSC_RDPS_WindV_IsbL-0175_RLatLon0.09_PT044H.grib2 2026-04-27 14:55 332K
20260427T12Z_MSC_RDPS_WindV_IsbL-0200_RLatLon0.09_PT044H.grib2 2026-04-27 14:55 344K
20260427T12Z_MSC_RDPS_WindV_IsbL-0225_RLatLon0.09_PT044H.grib2 2026-04-27 14:55 348K
20260427T12Z_MSC_RDPS_WindV_IsbL-0250_RLatLon0.09_PT044H.grib2 2026-04-27 14:55 375K
20260427T12Z_MSC_RDPS_WindV_IsbL-0275_RLatLon0.09_PT044H.grib2 2026-04-27 14:55 388K
20260427T12Z_MSC_RDPS_WindV_IsbL-0300_RLatLon0.09_PT044H.grib2 2026-04-27 14:55 386K
20260427T12Z_MSC_RDPS_WindV_IsbL-0350_RLatLon0.09_PT044H.grib2 2026-04-27 14:55 371K
20260427T12Z_MSC_RDPS_WindV_IsbL-0400_RLatLon0.09_PT044H.grib2 2026-04-27 14:55 371K
20260427T12Z_MSC_RDPS_WindV_IsbL-0450_RLatLon0.09_PT044H.grib2 2026-04-27 14:55 474K
20260427T12Z_MSC_RDPS_WindV_IsbL-0500_RLatLon0.09_PT044H.grib2 2026-04-27 14:55 472K
20260427T12Z_MSC_RDPS_WindV_IsbL-0550_RLatLon0.09_PT044H.grib2 2026-04-27 14:55 471K
20260427T12Z_MSC_RDPS_WindV_IsbL-0600_RLatLon0.09_PT044H.grib2 2026-04-27 14:55 477K
20260427T12Z_MSC_RDPS_WindV_IsbL-0650_RLatLon0.09_PT044H.grib2 2026-04-27 14:55 491K
20260427T12Z_MSC_RDPS_WindV_IsbL-0700_RLatLon0.09_PT044H.grib2 2026-04-27 14:55 511K
20260427T12Z_MSC_RDPS_WindV_IsbL-0750_RLatLon0.09_PT044H.grib2 2026-04-27 14:55 534K
20260427T12Z_MSC_RDPS_WindV_IsbL-0800_RLatLon0.09_PT044H.grib2 2026-04-27 14:55 573K
20260427T12Z_MSC_RDPS_WindV_IsbL-0850_RLatLon0.09_PT044H.grib2 2026-04-27 14:55 624K
20260427T12Z_MSC_RDPS_WindV_IsbL-0875_RLatLon0.09_PT044H.grib2 2026-04-27 14:55 633K
20260427T12Z_MSC_RDPS_WindV_IsbL-0900_RLatLon0.09_PT044H.grib2 2026-04-27 14:55 646K
20260427T12Z_MSC_RDPS_WindV_IsbL-0925_RLatLon0.09_PT044H.grib2 2026-04-27 14:55 655K
20260427T12Z_MSC_RDPS_WindV_IsbL-0950_RLatLon0.09_PT044H.grib2 2026-04-27 14:55 654K
20260427T12Z_MSC_RDPS_WindV_IsbL-0970_RLatLon0.09_PT044H.grib2 2026-04-27 14:55 795K
20260427T12Z_MSC_RDPS_WindV_IsbL-0985_RLatLon0.09_PT044H.grib2 2026-04-27 14:55 788K
20260427T12Z_MSC_RDPS_WindV_IsbL-1000_RLatLon0.09_PT044H.grib2 2026-04-27 14:55 782K
20260427T12Z_MSC_RDPS_WindV_IsbL-1015_RLatLon0.09_PT044H.grib2 2026-04-27 14:55 822K